Previsão horária em Aberen

Hoje, 11 Abril, Domingo

Tempo Temperatura Precipitação Vento Pressão Humidade
00:00 +6°C° 0 mm 2 m/s 711 mmHg 75%
01:00 +6°C° 0 mm 2 m/s 710 mmHg 76%
02:00 +6°C° 0 mm 2 m/s 710 mmHg 76%
03:00 +6°C° 0 mm 2 m/s 710 mmHg 75%
04:00 +7°C° 0 mm 1 m/s 710 mmHg 75%
05:00 +8°C° 0 mm 1 m/s 710 mmHg 75%
06:00 +8°C° 0 mm 1 m/s 710 mmHg 75%
07:00 +8°C° 0 mm 1 m/s 710 mmHg 74%
08:00 +10°C° 0 mm 1 m/s 710 mmHg 69%
09:00 +12°C° 0 mm 1 m/s 710 mmHg 63%
10:00 +14°C° 0 mm 1 m/s 709 mmHg 58%
11:00 +15°C° 0 mm 1 m/s 709 mmHg 55%
12:00 +16°C° 0 mm 1 m/s 709 mmHg 53%
13:00 +18°C° 0 mm 1 m/s 709 mmHg 50%
14:00 +17°C° 0 mm 2 m/s 709 mmHg 51%
15:00 +17°C° 0 mm 2 m/s 709 mmHg 53%
16:00 +17°C° 0 mm 2 m/s 709 mmHg 54%
17:00 +14°C° 0 mm 2 m/s 709 mmHg 64%
18:00 +12°C° 0 mm 2 m/s 710 mmHg 75%
19:00 +9°C° 0 mm 2 m/s 710 mmHg 86%
20:00 +8°C° 0.1 mm 2 m/s 711 mmHg 86%
21:00 +7°C° 0.1 mm 2 m/s 711 mmHg 87%
22:00 +8°C° 0.1 mm 1 m/s 712 mmHg 87%
23:00 +6°C° 0 mm 2 m/s 712 mmHg 87%

Amanhã, 12 Abril, Segunda-feira

Tempo Temperatura Precipitação Vento Pressão Humidade
00:00 +6°C° 0 mm 2 m/s 712 mmHg 87%
01:00 +6°C° 0 mm 2 m/s 712 mmHg 87%
02:00 +5°C° 0.2 mm 2 m/s 713 mmHg 90%
03:00 +4°C° 0.2 mm 2 m/s 713 mmHg 94%
04:00 +5°C° 0.2 mm 1 m/s 714 mmHg 97%
05:00 +5°C° 1.1 mm 1 m/s 714 mmHg 98%
06:00 +4°C° 1.1 mm 1 m/s 715 mmHg 98%
07:00 +4°C° 1.1 mm 1 m/s 715 mmHg 99%
08:00 +4°C° 1.2 mm 1 m/s 716 mmHg 99%
09:00 +4°C° 1.2 mm 1 m/s 716 mmHg 99%
10:00 +4°C° 1.2 mm 1 m/s 716 mmHg 99%
11:00 +4°C° 1 mm 1 m/s 717 mmHg 99%
12:00 +4°C° 1 mm 1 m/s 717 mmHg 99%
13:00 +4°C° 1 mm 1 m/s 717 mmHg 99%
14:00 +3°C° 1.3 mm 1 m/s 717 mmHg 99%
15:00 +3°C° 1.3 mm 1 m/s 718 mmHg 99%
16:00 +3°C° 1.3 mm 1 m/s 718 mmHg 99%
17:00 +2°C° 1 mm 2 m/s 718 mmHg 99%
18:00 +1°C° 1 mm 2 m/s 719 mmHg 99%
19:00 +1°C° 1 mm 2 m/s 719 mmHg 98%
20:00 +1°C° 0.5 mm 2 m/s 719 mmHg 98%
21:00 +2°C° 0.5 mm 1 m/s 719 mmHg 98%
22:00 +2°C° 0.5 mm 1 m/s 720 mmHg 98%
23:00 +1°C° 0.3 mm 1 m/s 720 mmHg 98%

Depois de amanhã, 13 Abril, Terça-feira

Tempo Temperatura Precipitação Vento Pressão Humidade
00:00 +1°C° 0.3 mm 1 m/s 720 mmHg 98%
01:00 +1°C° 0.3 mm 1 m/s 720 mmHg 98%
02:00 +1°C° 0.3 mm 1 m/s 720 mmHg 98%
03:00 +1°C° 0.3 mm 1 m/s 720 mmHg 98%
04:00 +1°C° 0.3 mm 1 m/s 720 mmHg 98%
05:00 +1°C° 0.2 mm 1 m/s 720 mmHg 98%
06:00 +1°C° 0.2 mm 1 m/s 720 mmHg 97%
07:00 +1°C° 0.2 mm 1 m/s 720 mmHg 97%
08:00 +1°C° 0.2 mm 2 m/s 720 mmHg 94%
09:00 +1°C° 0.2 mm 2 m/s 720 mmHg 92%
10:00 +2°C° 0.2 mm 2 m/s 721 mmHg 89%
11:00 +3°C° 0.3 mm 2 m/s 720 mmHg 88%
12:00 +3°C° 0.3 mm 2 m/s 720 mmHg 86%
13:00 +4°C° 0.3 mm 2 m/s 720 mmHg 84%
14:00 +4°C° 0.3 mm 2 m/s 720 mmHg 84%
15:00 +4°C° 0.3 mm 2 m/s 720 mmHg 85%
16:00 +4°C° 0.3 mm 2 m/s 720 mmHg 85%
17:00 +3°C° 0.3 mm 2 m/s 720 mmHg 88%
18:00 +3°C° 0.3 mm 1 m/s 720 mmHg 92%
19:00 +2°C° 0.3 mm 1 m/s 720 mmHg 96%
20:00 +2°C° 0.2 mm 1 m/s 721 mmHg 96%
21:00 +2°C° 0.2 mm 1 m/s 721 mmHg 97%
22:00 +1°C° 0.2 mm 1 m/s 721 mmHg 97%
23:00 0°C° 0.1 mm 1 m/s 721 mmHg 98%

14 Abril, Quarta-feira

Tempo Temperatura Precipitação Vento Pressão Humidade
00:00 -1°C° 0.1 mm 1 m/s 721 mmHg 98%
01:00 -3°C° 0.1 mm 0 m/s 721 mmHg 98%
02:00 -2°C° 0 mm 1 m/s 721 mmHg 98%
03:00 -2°C° 0 mm 1 m/s 721 mmHg 97%
04:00 -2°C° 0 mm 1 m/s 721 mmHg 97%
05:00 -2°C° 0 mm 1 m/s 721 mmHg 96%
06:00 -1°C° 0 mm 1 m/s 721 mmHg 95%
07:00 -1°C° 0 mm 1 m/s 721 mmHg 94%
08:00 0°C° 0 mm 1 m/s 721 mmHg 91%
09:00 +1°C° 0 mm 2 m/s 721 mmHg 87%
10:00 +2°C° 0 mm 2 m/s 721 mmHg 84%
11:00 +3°C° 0.2 mm 2 m/s 720 mmHg 81%
12:00 +3°C° 0.2 mm 3 m/s 720 mmHg 78%
13:00 +3°C° 0.2 mm 3 m/s 720 mmHg 75%
14:00 +3°C° 0.3 mm 3 m/s 719 mmHg 77%
15:00 +3°C° 0.3 mm 3 m/s 719 mmHg 79%
16:00 +3°C° 0.3 mm 3 m/s 719 mmHg 81%
17:00 +3°C° 0.2 mm 2 m/s 719 mmHg 84%
18:00 +2°C° 0.2 mm 2 m/s 719 mmHg 87%
19:00 +2°C° 0.2 mm 1 m/s 719 mmHg 91%
20:00 0°C° 0 mm 1 m/s 719 mmHg 92%
21:00 -1°C° 0 mm 1 m/s 720 mmHg 93%
22:00 -2°C° 0 mm 1 m/s 720 mmHg 93%
23:00 -3°C° 0 mm 1 m/s 720 mmHg 94%

15 Abril, Quinta-feira

Tempo Temperatura Precipitação Vento Pressão Humidade
00:00 -3°C° 0 mm 1 m/s 720 mmHg 94%
01:00 -4°C° 0 mm 1 m/s 720 mmHg 94%
02:00 -4°C° 0 mm 1 m/s 720 mmHg 94%
03:00 -6°C° 0 mm 1 m/s 720 mmHg 94%
04:00 -6°C° 0 mm 1 m/s 720 mmHg 95%
05:00 -4°C° 0 mm 1 m/s 720 mmHg 94%
06:00 -3°C° 0 mm 1 m/s 720 mmHg 92%
07:00 -2°C° 0 mm 1 m/s 720 mmHg 91%
08:00 0°C° 0 mm 1 m/s 720 mmHg 87%
09:00 +1°C° 0 mm 2 m/s 720 mmHg 82%
10:00 +2°C° 0 mm 3 m/s 720 mmHg 77%
11:00 +3°C° 0.1 mm 3 m/s 719 mmHg 73%
12:00 +3°C° 0.1 mm 3 m/s 719 mmHg 69%
13:00 +4°C° 0.1 mm 3 m/s 719 mmHg 64%
14:00 +4°C° 0.2 mm 3 m/s 719 mmHg 70%
15:00 +3°C° 0.2 mm 3 m/s 719 mmHg 75%
16:00 +3°C° 0.2 mm 4 m/s 719 mmHg 81%
17:00 +2°C° 0.2 mm 3 m/s 719 mmHg 83%
18:00 +1°C° 0.2 mm 3 m/s 719 mmHg 86%
19:00 0°C° 0.2 mm 3 m/s 719 mmHg 89%
20:00 -1°C° 0 mm 2 m/s 719 mmHg 91%
21:00 -2°C° 0 mm 2 m/s 719 mmHg 93%
22:00 -4°C° 0 mm 2 m/s 719 mmHg 95%
23:00 -4°C° 0 mm 2 m/s 719 mmHg 95%

16 Abril, Sexta-feira

Tempo Temperatura Precipitação Vento Pressão Humidade
00:00 -5°C° 0 mm 2 m/s 719 mmHg 95%
01:00 -5°C° 0 mm 2 m/s 719 mmHg 95%
02:00 -5°C° 0 mm 2 m/s 719 mmHg 95%
03:00 -6°C° 0 mm 2 m/s 718 mmHg 94%
04:00 -6°C° 0 mm 2 m/s 718 mmHg 93%
05:00 -5°C° 0 mm 2 m/s 718 mmHg 91%
06:00 -4°C° 0 mm 2 m/s 718 mmHg 88%
07:00 -1°C° 0 mm 1 m/s 718 mmHg 86%
08:00 -2°C° 0 mm 2 m/s 718 mmHg 81%
09:00 +1°C° 0 mm 2 m/s 718 mmHg 77%
10:00 +3°C° 0 mm 2 m/s 718 mmHg 72%
11:00 +4°C° 0 mm 2 m/s 717 mmHg 69%
12:00 +6°C° 0 mm 2 m/s 717 mmHg 66%
13:00 +7°C° 0 mm 2 m/s 717 mmHg 63%
14:00 +8°C° 0 mm 2 m/s 716 mmHg 64%
15:00 +8°C° 0 mm 2 m/s 716 mmHg 64%
16:00 +8°C° 0 mm 2 m/s 716 mmHg 64%
17:00 +7°C° 0 mm 2 m/s 716 mmHg 71%
18:00 +5°C° 0 mm 2 m/s 716 mmHg 78%
19:00 +4°C° 0 mm 2 m/s 716 mmHg 85%
20:00 +3°C° 0 mm 2 m/s 716 mmHg 88%
21:00 +3°C° 0 mm 1 m/s 716 mmHg 91%
22:00 +1°C° 0 mm 1 m/s 717 mmHg 94%
23:00 +1°C° 0 mm 1 m/s 717 mmHg 94%
Mostrar mais

Necessitamos do seu Consentimento

A Meteoprog e os seus Fornecedores de Serviços podem armazenar e aceder a dados pessoais como cookies, identificadores do dispositivo ou outras tecnologias semelhantes existentes no seu dispositivo e processar estes dados para personalizar conteúdos e anúncios, assim como funcionalidades nas redes sociais e análise de tráfego.

  • Armazenar e/ou aceder a informações no seu dispositivo

    Os cookies, identificadores do dispositivo ou outras informações podem ser armazenados ou acedidos no seu dispositivo, para os fins acima indicados.

  • Anúncios e conteúdos personalizados, medição de anúncios e conteúdos, dados sobre o público-alvo e desenvolvimento de produtos

    Os anúncios e os conteúdos podem ser personalizados com base num perfil. Podem ser adicionados dados adicionais para uma maior personalização dos anúncios e dos conteúdos. A eficácia dos anúncios e dos conteúdos pode ser medida. Podem ser obtidas informações sobre o público que visualizou os anúncios e os conteúdos. Estes dados podem ser usados para desenvolver ou melhorar sistemas, softwares ou a experiência do utilizador.

Ao clicar em "Eu concordo”, permitirá o uso de cookies, identificadores do dispositivo e web beacons mencionados ou outras tecnologias semelhantes. As configurações do navegador do seu dispositivo podem ser alteradas.

Para certos fins, podem ser invocados interesses legítimos ao invés de consentimento. Pode ler mais informação sobre este assunto na nossa Política de Privacidade e Cookies.